Regional Weather Roundup
Issued by NWS

Home | Current Version | Previous Version | Graphics & Text | Print | Product List | Glossary On
Versions: 1 2 3 4 5 6 7 8 9 10 11 12 13 14 15 16 17 18 19 20 21 22 23 24 25 26 27 28 29 30 31 32 33 34 35 36 37 38 39 40 41 42 43 44 45 46 47 48 49 50
000
ASUS43 KBIS 230402
RWRND

NORTH DAKOTA REGIONAL WEATHER ROUNDUP
NATIONAL WEATHER SERVICE BISMARCK ND
1000 PM CST WED NOV 22 2017

NOTE: "FAIR" INDICATES FEW OR NO CLOUDS BELOW 12,000 FEET WITH NO
SIGNIFICANT WEATHER AND/OR OBSTRUCTIONS TO VISIBILITY.


NDZ001>003-009>011-017-230500-
NORTHWEST NORTH DAKOTA

CITY           SKY/WX    TMP DP  RH WIND       PRES   REMARKS
WILLISTON      CLOUDY    24  21  88 N3        29.96F
MINOT          CLOUDY    24  19  81 SW8       29.95S WCI  15
MINOT AFB      CLOUDY    20  17  89 SW6       29.94S WCI  12
$$

NDZ018>021-031>035-040>046-230500-
SOUTHWEST NORTH DAKOTA

CITY           SKY/WX    TMP DP  RH WIND       PRES   REMARKS
BISMARCK       CLOUDY    28  23  81 CALM      30.00R
DICKINSON      CLEAR     32  29  88 S5        29.95S
GARRISON         N/A     25  22  88 NW6       29.96F WCI  18
HETTINGER ARPT CLEAR     35  31  85 W7        30.01R
$$

NDZ004>008-012>016-024-026-027-054-230500-
NORTHEAST NORTH DAKOTA

CITY           SKY/WX    TMP DP  RH WIND       PRES   REMARKS
GRAND FORKS    CLOUDY    21  19  92 CALM      29.96S
GRND FRKS AFB  CLOUDY    22  19  86 CALM      29.95S
DEVILS LAKE    CLOUDY    27  24  89 CALM      29.95S
$$

NDZ022-023-025-028>030-036>039-047>053-230500-
SOUTHEAST NORTH DAKOTA

CITY           SKY/WX    TMP DP  RH WIND       PRES   REMARKS
FARGO          CLOUDY    29  17  61 N3        29.95R
JAMESTOWN      CLOUDY    28  23  81 NW12      29.95S WCI  18
$$





USA.gov is the U.S. government's official web portal to all federal, state and local government web resources and services.